This is the latest recevied weather packets stored in our database for station/object KQ4NAL. If no packets are shown the sender has not sent any weather packets the latest 10 day(s).
| Time | Temp. | Humidity | Pressure | Rain* | Wind** | Luminosity | Snow |
|---|---|---|---|---|---|---|---|
| 1777818843 | 12.78° C | 50% | 1021.1 hPa | 0 mm | - | 683 W/m² | - |
| 1777818539 | 12.78° C | 51% | 1021 hPa | 0 mm | - | 676 W/m² | - |
| 1777818238 | 11.67° C | 54% | 1021.3 hPa | 0 mm | - | 654 W/m² | - |
| 1777817933 | 12.22° C | 49% | 1021.1 hPa | 0 mm | - | 674 W/m² | - |
| 1777817631 | 11.67° C | 51% | 1021.1 hPa | 0 mm | - | 635 W/m² | - |
| 1777817327 | 11.67° C | 52% | 1021.3 hPa | 0 mm | - | 602 W/m² | - |
| 1777817024 | 11.11° C | 52% | 1021.3 hPa | 0 mm | - | 564 W/m² | - |
| 1777816720 | 11.67° C | 56% | 1021.3 hPa | 0 mm | - | 520 W/m² | - |
| 1777816418 | 11.11° C | 58% | 1021.3 hPa | 0 mm | - | 489 W/m² | - |
| 1777816116 | 10.56° C | 60% | 1021.3 hPa | 0 mm | - | 511 W/m² | - |
| 1777815813 | 10° C | 61% | 1021.2 hPa | 0 mm | - | 472 W/m² | - |
| 1777815510 | 10° C | 65% | 1021.2 hPa | 0 mm | - | 409 W/m² | - |
| 1777815207 | 8.89° C | 64% | 1021.4 hPa | 0 mm | - | 390 W/m² | - |
| 1777814904 | 9.44° C | 65% | 1021.2 hPa | 0 mm | - | 390 W/m² | - |
| 1777814600 | 8.89° C | 66% | 1021.3 hPa | 0 mm | - | 376 W/m² | - |
| 1777814298 | 8.89° C | 67% | 1021.1 hPa | 0 mm | - | 336 W/m² | - |
| 1777813994 | 8.89° C | 68% | 1021.3 hPa | 0 mm | - | 333 W/m² | - |
| 1777813692 | 8.33° C | 70% | 1021.4 hPa | 0 mm | - | 326 W/m² | - |
| 1777813389 | 7.22° C | 71% | 1021.3 hPa | 0 mm | - | 307 W/m² | - |
| 1777813086 | 6.67° C | 74% | 1021.4 hPa | 0 mm | - | 280 W/m² | - |
| 1777812784 | 6.11° C | 76% | 1021.3 hPa | 0 mm | - | 254 W/m² | - |
| 1777812480 | 5.56° C | 80% | 1021.3 hPa | 0 mm | - | 246 W/m² | - |
| 1777812178 | 5° C | 85% | 1021.3 hPa | 0 mm | - | 220 W/m² | - |
| 1777811876 | 4.44° C | 89% | 1021.2 hPa | 0 mm | - | 204 W/m² | - |
| 1777811574 | 3.89° C | 93% | 1021.4 hPa | 0 mm | - | 189 W/m² | - |
* Rain latest hour (hover to see other rain measurements)
** Current wind speed in m/s (hover to see current wind gust speed)